Preview of NWS' New Version of Forecast
This preview is not operational and should not be used for support decisions.

Regional Weather Roundup (RWR)

Issued by National Weather Service (NWS)

                            
000
ASUS45 KBOU 180610
RWRCO 

WEATHER ROUNDUP FOR COLORADO
NATIONAL WEATHER SERVICE DENVER/BOULDER CO
1200 AM MDT TUE JUN 18 2019

NOTE: "FAIR" INDICATES FEW OR NO CLOUDS BELOW 12000 FEET WITH NO
SIGNIFICANT WEATHER AND/OR OBSTRUCTIONS TO VISIBILITY.

COZ001>005-013-030-031-180700-
...NORTHWEST COLORADO...
  
CITY           SKY/WX    TMP DP  RH WIND       PRES   REMARKS
CRAIG          MOCLDY    54  50  86 S6        30.17F                  
HAYDEN         LGT RAIN  53  49  86 E5        30.20S                  
MEEKER         LGT RAIN  53  50  89 SE5       30.19S                  
RANGELY        DRIZZLE   57  51  80 E3        30.12F                  
RABBIT EARS PA NOT AVBL                                               
STEAMBOAT SPGS CLOUDY    51  51  97 NE6       30.20F                  
WALDEN         CLOUDY    46  43  87 CALM      30.27F                  
$$

COZ006>008-011-180700-
...WEST CENTRAL VALLEYS...
  
CITY           SKY/WX    TMP DP  RH WIND       PRES   REMARKS
GRAND JUNCTION FAIR      58  53  84 E6        30.11R                  
MONTROSE       FAIR      54  45  71 E7        30.17S                  
EAGLE          LGT RAIN  52  51  97 E3        30.23F                  
RIFLE          FAIR      56  53  90 N3        30.15S                  
DELTA          FAIR      58  51  75 N8        30.14S                  
NUCLA          FAIR      52  46  82 SW5       30.19R                  
$$

COZ017>023-064>068-180700-
...SOUTHWEST COLORADO...
  
CITY           SKY/WX    TMP DP  RH WIND       PRES   REMARKS
DURANGO        FAIR      50  44  80 N5        30.23R                  
CORTEZ         FAIR      49  42  77 CALM      30.17R                  
PAGOSA SPRINGS FAIR      50  44  78 CALM      30.29S                  
TELLURIDE      FAIR      43  41  93 SE7       30.36S                  
WOLF CREEK PAS FAIR      36  34  93 SW6       30.54S                  
$$

COZ009-010-012-014-032>034-037-058>063-180700-
...CENTRAL COLORADO...
  
CITY           SKY/WX    TMP DP  RH WIND       PRES   REMARKS
ASPEN          CLOUDY    52  44  74 SE5       30.25F                  
BUENA VISTA    FAIR      49  42  78 E5        30.25F                  
COPPER MTN     LGT RAIN  39  36  87 MISG      30.46S                  
BERTHOUD PASS  CLOUDY    34  25  69 W7        30.48S WCI  28          
COTTONWOOD PAS FAIR      48  37  66 W9        30.35S                  
GUNNISON       MOCLDY    53  44  71 MISG      30.26F                  
GRANBY         CLOUDY    47  44  88 CALM      30.28S                  
KREMMLING      NOT AVBL                                               
LEADVILLE      CLOUDY    44  40  85 N5        30.34S                  
MONARCH PASS   FOG       36  36 100 MISG      30.56F VSB<1/4          
SALIDA         FAIR      54  47  76 CALM      30.30S                  
SUNLIGHT       MOCLDY    37  36  93 S5        30.42S                  
WILKERSON PASS CLOUDY    41  34  75 CALM      30.45F                  
$$

COZ069>075-180700-
...SAN LUIS VALLEY/SANGRE DE CRISTO MOUNTAINS...
  
CITY           SKY/WX    TMP DP  RH WIND       PRES   REMARKS
ALAMOSA        CLOUDY    50  47  89 SE5       30.24F                  
DEL NORTE      FAIR      49  46  88 W3        30.29R                  
LA VETA PASS   NOT AVBL                                               
SAGUACHE       FAIR      46  45  93 CALM      30.28F                  
$$

COZ035-036-038>040-180700-
...NORTHERN COLORADO FRONT RANGE...
  
CITY           SKY/WX    TMP DP  RH WIND       PRES   REMARKS
DENVER INTL AP CLOUDY    58  57  97 NW14      30.12F                  
AURORA         CLOUDY    58  58 100 NW9       30.14F                  
FRONT RANGE AP CLOUDY    59  57  95 NW8       30.13F FOG              
ERIE MUNI ARPT CLOUDY    56  54  91 N6        30.20S                  
BOULDER MUN AP CLOUDY    55  54  94 N6        30.15S                  
CENTENNIAL     CLOUDY    59  53  80 W8        30.15F                  
BROOMFIELD     CLOUDY    55  54  94 NW10      30.17R                  
FORT COLLINS     N/A     56  53  90 N8        30.15S                  
LONGMONT       RAIN      58  55  88 NW7       30.17S                  
$$

COZ041-046-047-076>085-087-088-180700-
...PIKES PEAK/PALMER DIVIDE AND SOUTHERN FOOTHILLS...
  
CITY           SKY/WX    TMP DP  RH WIND       PRES   REMARKS
COLO. SPRINGS  MOCLDY    57  48  72 N9        30.17S                  
A. F. ACADEMY  MOCLDY    53  51  95 N9        30.16F                  
SCHRIEVER AFB  NOT AVBL                                               
CHEYENNE MTN   NOT AVBL                                               
ELLICOTT         N/A    N/A N/A N/A N5        30.13F                  
FALCON         MOCLDY    53  50  87 NW8       30.20F                  
FORT CARSON    MOCLDY    55  52  89 NW8       30.12F                  
LIMON          CLOUDY    56  55  97 CALM      30.11S                  
MONUMENT HILL  CLOUDY    50  46  87 W7        30.22F                  
CANON CITY     MOCLDY    61  54  77 E3        30.11F                  
WALSENBURG     NOT AVBL                                               
TRINIDAD       FAIR      56  54  93 W3        30.11F                  
$$

COZ042>045-048>051-090-091-180700-
...NORTHEAST COLORADO...
  
CITY           SKY/WX    TMP DP  RH WIND       PRES   REMARKS
GREELEY ARPT   LGT RAIN  60  57  89 NW3       30.13R                  
AKRON          CLOUDY    56  56 100 NE9       30.10F                  
BURLINGTON     CLOUDY    61  59  93 NE10      30.05F                  
WRAY           CLOUDY    59  59 100 E3        30.07F                  
YUMA           CLOUDY    55  45  67 N7        30.08F                  
STERLING       MOCLDY    59  57  94 E3        30.08S                  
HOLYOKE        MOCLDY    61  59  94 NE6       30.08F                  
FORT MORGAN    CLOUDY    58  56  91 E7        30.11F                  
$$

COZ086-089-092>099-180700-
...SOUTHEAST COLORADO...
  
CITY           SKY/WX    TMP DP  RH WIND       PRES   REMARKS
PUEBLO         FAIR      56  52  86 MISG      30.07F                  
LA JUNTA       FAIR      60  56  86 W7        30.03F                  
LAMAR          FAIR      60  59  96 S6        29.97F                  
SPRINGFIELD      N/A     56  56 100 CALM      30.02F                  
$$